Location: Crescent
(42.8242°N, 73.7329°W)
Time: 18:54:32
(UTC+00:00)

Tiros 1 - Pass Details

Date: 22 February 2026
Orbit: 618 x 649 km, 48.4° (Epoch: 10 March)

Event Time Altitude Azimuth Distance (km) Brightness Sun altitude
Rises 16:20:49 0° 295° (WNW) 2,904 10.2 36.0°
Reaches altitude 10° 16:23:10 10° 298° (WNW) 1,992 9.4 36.2°
Maximum altitude 16:27:42 66° 20° (NNE) 677 7.6 36.3°
Drops below altitude 10° 16:32:14 10° 104° (ESE) 1,976 10.0 36.5°
Sets 16:34:33 0° 107° (ESE) 2,879 10.8 36.6°
